This demonstration page uses our WeatherBlox Daily Observations layout. Learn more.

Left ArrowRight Arrow

36.19886, -115.1175

Hourly Observations for January 9, 2021

Temp ( °F °C ) Dew Point ( °F °C ) Humidity (%) Winds ( mph kmh ) Pressure ( in mb ) Visibility ( mi km ) Precip ( " mm )
12:53 am 00:53 Clear 52 11.1 6 -14.4 15 15 N 15 24 30.06 1018 10 16.0934 0 0
1:53 am 01:53 Clear 50 10 7 -13.9 17 17 NNW 12 19 30.11 1020 10 16.0934 0 0
2:03 am 02:03 Clear 50 10 8 -13.3 18 18 NNW 9 15 30.07 1018 10 16.0934 0 0
2:53 am 02:53 Clear 52 11.1 17 -8.3 25 25 NNW 15 24 30.12 1020 10 16.0934 0 0
3:53 am 03:53 Clear 53 11.7 18 -7.8 25 25 NW 13 20 30.13 1020 10 16.0934 0 0
4:53 am 04:53 Clear 51 10.6 21 -6.1 31 31 NW 22 35 30.14 1021 10 16.0934 0.001 0.001
5:14 am 05:14 Clear 50 10 19 -7.2 29 29 NNE 9 15 30.13 1020 10 16.0934 0 0
5:53 am 05:53 Clear 50 10 18 -7.8 28 28 NNW 17 28 30.17 1022 10 16.0934 0 0
6:53 am 06:53 Sunny 49 9.4 16 -8.9 27 27 NNW 17 28 30.21 1023 10 16.0934 0 0
7:53 am 07:53 Sunny 50 10 17 -8.3 27 27 NNW 16 26 30.23 1024 10 16.0934 0 0
8:53 am 08:53 Sunny 53 11.7 17 -8.3 24 24 NW 21 33 30.24 1024 10 16.0934 0 0
9:53 am 09:53 Sunny with Light Rain 55 12.8 17 -8.3 22 22 NW 26 43 30.24 1024 10 16.0934 0.001 0.001
10:53 am 10:53 Sunny 56 13.3 18 -7.8 22 22 NW 21 33 30.24 1024 10 16.0934 0.001 0.001
11:53 am 11:53 Sunny 58 14.4 18 -7.8 21 21 NW 20 31 30.2 1023 10 16.0934 0 0
12:53 pm 12:53 Sunny 59 15 18 -7.8 20 20 NW 23 37 30.17 1022 10 16.0934 0 0
1:53 pm 13:53 Sunny 60 15.6 18 -7.8 19 19 NNW 18 30 30.16 1021 10 16.0934 0 0
2:53 pm 14:53 Sunny 60 15.6 18 -7.8 19 19 NW 12 19 30.16 1021 10 16.0934 0 0
3:53 pm 15:53 Sunny 59 15 17 -8.3 19 19 NW 15 24 30.16 1021 10 16.0934 0 0
4:53 pm 16:53 Clear 57 13.9 17 -8.3 21 21 NNW 9 15 30.17 1022 10 16.0934 0 0
5:53 pm 17:53 Clear 55 12.8 17 -8.3 22 22 NNW 6 9 30.19 1022 10 16.0934 0 0
6:53 pm 18:53 Clear 53 11.7 22 -5.6 30 30 ENE 7 11 30.22 1023 10 16.0934 0 0
7:53 pm 19:53 Clear 50 10 23 -5 35 35 NE 5 7 30.24 1024 10 16.0934 0 0
8:53 pm 20:53 Clear 50 10 23 -5 35 35 NE 7 11 30.26 1025 10 16.0934 0 0
9:53 pm 21:53 Clear 51 10.6 19 -7.2 28 28 N 8 13 30.27 1025 10 16.0934 0 0
10:53 pm 22:53 Clear 49 9.4 19 -7.2 31 31 N 13 20 30.27 1025 10 16.0934 0 0
11:53 pm 23:53 Clear 48 8.9 19 -7.2 32 32 NNW 8 13 30.27 1025 10 16.0934 0 0

Powered by AerisWeather